GAOFEN-5 (43461 NORAD) Tracking and Keplerian Element Data

This shows tracking and keplerian element data for the satellite.

Feedback or suggestion? Click here.




ElementValue
Catalog43461
NameGAOFEN-5
Epoch Orbit414
Epoch Day157.08512353
Epoch Year2018
RAAN98.3296
Inclination98.126
Eccentricity0.0001833
Argument of Perigee147.7283
Mean Anonmoly212.4035
Mean Motion14.57765137
Decay Rate2.6E-07
L11 43461U 18043A 18157.08512353 .00000026 00000-0 15432-4 0 9990
L22 43461 98.1260 98.3296 0001833 147.7283 212.4035 14.57765137 4142

Live tracking and technical data element details for GAOFEN-5 (NORAD 43461). GAOFEN-5 can be tracked NOW for your location showing map with azimuth and elevation plus other details from your city location.

Track the satellite on the map from your city or location and see movement details for azimuth, elevation, latitude, longitude, range, height, and movement on the map or in text.







IsCatalogInMostPopularTable: catalog: 43461, numindb: 17
Update: records affected: 1



GetName: 43461 GAOFEN-5

Hit Count: updated at: Mon, 23 Jul 2018 07:35:07 GMT